www.pogodaiklimat.ru

Погода и климат >> Архив погоды >> Россия >> Алтайский край >> Алейская


ПОГОДА в Алейской

  • Прогноз погоды в Алейской
  • Монитор погоды в Алейской
  • Климат города

АРХИВ ПОГОДЫ в Алейской

Время (UTC), дата Ветер
(напр.,м/с)
 
Видим.   Явления Облачность Т
(С)
Тd
(С)
f
(%)
Тe
(С)
Тes
(С)
Комфортность P
(гПа)
Po
(гПа)
Тmin
(С)
Tmax
(С)
R
(мм)
R24
(мм)
S
(см)
00 15.02 З 3 4000 м слабый ливневой снег 10/10 600 м
[Cb cap]
-6.6 -8.9 84 -12 -12 1017.9 995.4 -10.8 0.5 7
03 15.02 З 3 4000 м слабый снег {ливн. осадки} 10/10 600 м
[Sc]
-11.2 -14.3 78 -17 -17 1020.1 997.1 -11.2
06 15.02 ЮЗ 2 10 км {ливн. осадки, снег} ясно -10.9 -16.2 65 -15 -11 1021.4 998.4
09 15.02 З 2 10 км 6/0
[Cs]
-11.4 -17.0 63 -16 -14 1022.8 999.7
12 15.02 З 2 4000 м слабый ливневой снег 9/9 600 м
[Cb cap]
-14.1 -19.1 66 -19 -19 1025.3 1001.9 -6.6 0.0
15 15.02 ЮЗ 2 4000 м слабый ливневой снег 10/10 600 м
[Cb cap]
-14.9 -18.2 76 -20 -20 1027.8 1004.3
18 15.02 Ю 1 4000 м слабый ливневой снег 10/10 600 м
[Cb cap]
-17.2 -20.0 79 -20 -20 1030.0 1006.2
21 15.02 Ю 2 4000 м слабый ливневой снег 8/8 600 м
[Cb cap]
-17.2 -20.6 75 -23 -23 1031.3 1007.5
00 16.02 Ю 1 4000 м слабый ливневой снег 10/10 600 м
[Cb cap]
-16.3 -19.0 80 -19 -19 1032.4 1008.6 -17.3 0.8 7
03 16.02 Ю 3 4000 м слабый ливневой снег 10/10 600 м
[Cb cap]
-15.2 -18.3 77 -22 -22 1033.6 1009.9
06 16.02 Ю 5 10 км в посл. час ливневой снег 10/3 600 м
[Sc Ac As]
-14.9 -19.2 70 -24 -23 1035.2 1011.5
09 16.02 Ю 5
{10}
4000 м слабый ливневой снег 10/5 600 м
[Cb cap Ac und]
-14.4 -19.2 67 -23 -23 1036.9 1013.2
12 16.02 Ю 2 10 км {ливн. осадки} 10/1 600 м
[Sc Ac As]
-15.4 -18.9 74 -20 -20 1039.0 1015.1 -14.3 1
15 16.02 Ю 1 10 км 10/0
[Ac As]
-16.7 -19.5 79 -19 -19 1040.6 1016.6
18 16.02 Ю 2 4000 м слабый снег 10/0
[As op]
-17.1 -20.0 78 -22 -22 1041.6 1017.6
21 16.02 Ю 1 10 км {снег} 10/0
[Ac As]
-19.0 -21.6 80 -22 -22 1042.6 1018.3
00 17.02 штиль 0 10 км {снег} ясно -21.2 -24.1 77 -21 -21 1043.2 1018.7 -21.2 0.3 8
03 17.02 В 1 4000 м дымка ясно -20.6 -23.6 77 -24 -23 1044.1 1019.6 -23.5
06 17.02 Ю 1 10 км ясно -14.5 -19.5 66 -17 -12 1043.5 1019.6
09 17.02 В 1 10 км ясно -12.5 -18.5 61 -15 -12 1042.6 1018.9
12 17.02 СВ 1 10 км ясно -15.5 -19.5 71 -18 -18 1042.6 1018.7 -12.2
15 17.02 штиль 0 10 км ясно -19.6 -22.2 80 -20 -20 1042.9 1018.6
18 17.02 З 1 10 км ясно -23.3 -26.4 76 -27 -27 1043.1 1018.4
21 17.02 штиль 0 10 км ясно -26.5 -30.0 72 -27 -27 1043.1 1018.1
00 18.02 штиль 0 10 км 6/6 600 м
[Sc]
-27.6 -31.3 71 -28 -28 1043.5 1018.4 -27.8 7
03 18.02 штиль 0 2000 м дымка 10/10 300 м
[St]
-25.9 -29.4 72 -26 -26 1043.8 1018.8
06 18.02 Ю 1 10 км 8/8 600 м
[Sc]
-18.6 -22.2 73 -21 -20 1042.4 1018.2
09 18.02 Ю 2 20 км 4/4 1000 м
[Sc]
-15.4 -20.7 64 -20 -19 1041.4 1017.5
12 18.02 Ю 1 20 км 3/0
[Cs]
-17.4 -21.6 70 -20 -20 1041.4 1017.4 -14.9
15 18.02 Ю 1 20 км 3/0
[Cs]
-20.6 -23.4 78 -24 -24 1042.0 1017.6
18 18.02 Ю 1 20 км ясно -23.5 -26.7 75 -27 -27 1041.7 1017.0
21 18.02 Ю 3 20 км ясно -22.4 -25.4 76 -30 -30 1041.6 1017.0
00 19.02 Ю 3 50 км ясно -21.8 -24.9 76 -30 -30 1041.9 1017.4 -24.6 7
03 19.02 Ю 3 4000 м дымка 9/3 1000 м
[Sc Ac trans]
-20.0 -23.0 77 -28 -27 1042.6 1018.2
06 19.02 Ю 5 4000 м слабый ливневой снег 9/8 600 м
[Cb cap Ac trans]
-14.8 -18.5 73 -24 -23 1041.9 1018.0
09 19.02 Ю 5
{11}
4000 м слабый ливневой снег {метель} 10/8 600 м
[Cb cap Ac As]
-11.9 -15.9 72 -20 -20 1041.2 1017.6
12 19.02 Ю 4
{10}
4000 м слабый ливневой снег {метель} 10/10 600 м
[Cb cap]
-11.9 -15.0 78 -19 -19 1041.5 1017.9 -11.8 0.3
15 19.02 Ю 4
{10}
10 км {ливн. осадки} 8/8 600 м
[Sc]
-12.4 -15.7 76 -20 -20 1042.1 1018.5
18 19.02 Ю 4 4000 м слабый ливневой снег 10/10 600 м
[Cb cap]
-12.3 -16.0 74 -19 -19 1042.0 1018.4
21 19.02 Ю 3 10 км {ливн. осадки} 3/0
[Ci fib]
-12.9 -16.8 73 -19 -19 1041.4 1017.8
00 20.02 Ю 2 10 км {ливн. осадки} 3/0
[Ac trans]
-15.1 -18.6 75 -20 -20 1041.9 1018.0 -15.2 0.0 7
03 20.02 Ю 2 10 км 8/8 600 м
[Sc]
-15.1 -18.7 74 -20 -20 1041.7 1017.8 -15.8
06 20.02 Ю 2 10 км 8/3 600 м
[Sc Cs]
-10.8 -16.5 63 -15 -13 1040.1 1016.7
09 20.02 ЮЗ 2 20 км 6/0
[Ci fib]
-6.9 -13.6 59 -11 -9 1038.2 1015.1
12 20.02 штиль 0 20 км 10/0
[Cs]
-10.8 -15.6 68 -11 -11 1037.0 1013.6 -6.9
15 20.02 С 1 20 км ясно -14.6 -17.2 81 -17 -17 1035.9 1012.2
18 20.02 штиль 0 20 км ясно -17.1 -19.6 81 -17 -17 1033.9 1010.0
21 20.02 СЗ 1 4000 м дымка ясно -17.7 -20.3 80 -21 -21 1032.7 1008.8
00 21.02 штиль 0 4000 м дымка ясно -19.6 -22.4 78 -20 -20 1031.2 1007.2 -19.6 7
03 21.02 штиль 0 2000 м дымка 6/0
[Cs]
-16.9 -19.6 80 -17 -16 1029.9 1006.1 -20.0
06 21.02 СВ 2 10 км 10/0
[As trans]
-9.9 -14.1 71 -14 -12 1027.6 1004.6
09 21.02 С 2 10 км 10/0
[As trans Cc]
-6.1 -11.9 63 -10 -9 1025.3 1002.6
12 21.02 С 2 10 км 10/0
[Cc]
-8.3 -12.2 73 -13 -13 1023.0 1000.1 -6.1
15 21.02 СВ 1 10 км 10/0
[Cs]
-8.6 -12.3 75 -11 -11 1021.2 998.3
18 21.02 Ю 2 10 км 10/0
[As trans]
-9.3 -12.4 78 -14 -14 1019.8 996.9
21 21.02 Ю 1 10 км 10/0
[As trans]
-9.4 -12.7 77 -12 -12 1018.3 995.4

 

Местоположение метеостанции Алейская (Алтайский край, Россия): широта 52.52 долгота 82.77 высота над уровнем моря 176 м.

В архиве по умолчанию представлена погода в Алейской за последнюю неделю. Архивные данные за месяц целиком и за предыдущие месяцы, начиная с января 2011 года, Вы можете получить, выбрав интересующий диапазон дат из раскрывающегося списка и нажав кнопку "Ввод!".

Внимание! Время в таблицах - всемирное. Для получения местного времени необходимо прибавить поправку, которая в Алейской равна 7 ч.

Смотрите также архив погоды в соседних городах и на ближайших метеорологических станциях:

Погода в Шипуново (Алтайский край, Россия) (51 км)
Погода в Усть-Калманке (Алтайский край, Россия) (61 км)
Погода в Усть-Чарышской Пристани (Алтайский край, Россия) (63 км)
Погода в Ребрихе (Алтайский край, Россия) (69 км)
Погода в Мамонтово (Алтайский край, Россия) (80 км)
Погода в Поспелихе (Алтайский край, Россия) (86 км)
Погода в Краснощеково (Алтайский край, Россия) (95 км)
Погода в Шелаболихе (Алтайский край, Россия) (101 км)
Погода в Барнауле (Алтайский край, Россия) (113 км)
Погода в Троицком (Алтайский край, Россия) (138 км)

Пояснения к столбцам:

Ветер - указаны скорость ветра в м/с - средняя за 10 мин, порывы в срок и между сроками (в фигурных скобках) и направление, откуда дует ветер: С - северный, СВ - северо-восточный, В - восточный, ЮВ - юго-восточный, Ю - южный, ЮЗ - юго-западный, З - западный, СЗ - северо-западный.
Видимость - горизонтальная дальность видимости в метрах или километрах. При видимости от 1 до 10 км при отсутствии осадков обычно наблюдается дымка, при ухудшении видимости до 1 км и менее - туман. В сухую погоду видимость может ухудшаться дымом, пылью или мглою.
Явления - указаны атмосферные явления, наблюдавшиеся в срок или в последний час перед сроком; фигурными скобками обозначены явления, наблюдавшиеся между сроками (за 1-3 часа до срока); квадратными скобками обозначены град или гололедные отложения с указанием их диаметра в мм.
Облачность - указаны через наклонную черту общая и нижняя облачность в баллах и высота нижней границы облаков в метрах; квадратными скобками обозначены формы облаков: Ci - перистые, Cs - перисто-слоистые, Cc - перисто-кучевые, Ac - высококучевые, As - высокослоистые, Sc - слоисто-кучевые, Ns - слоисто-дождевые, Cu - кучевые, Cb - кучево-дождевые. Подробнее классификацию облаков см. в Атласе облаков (PDF).
T - Температура воздуха - температура, измеренная на высоте 2 м над землей.
Td - Температура точки росы - температура, при понижении до которой содержащийся в воздухе водяной пар достигнет насыщения.
f - Относительная влажность воздуха - влажноcть воздуха, измеренная на высоте 2 м над землей.
Te - Эффективная температура - температура, которую ощущает одетый по сезону человек в тени. Характеристика душности погоды. При расчете учитывается влияние влажности воздуха и скорости ветра на теплоощущения человека.
Tes - Эффективная температура на солнце - температура, которую ощущает человек, с поправкой на солнечный нагрев. Характеристика знойности погоды. Зависит от высоты солнца над горизонтом, облачности и скорости ветра. Ночью, в пасмурную погоду, а также при ветре 12 м/с и более поправка равна нулю.
P - Атмосферное давление - приведенное к уровню моря атмосферное давление.
Po - Атмосферное давление - измеренное на уровне метеостанции атмосферное давление.
Tmin - Минимальная температура - минимум температуры воздуха на высоте 2 м над землей.
Tmax - Максимальная температура - максимум температуры воздуха на высоте 2 м над землей.
R - Количество осадков - Количество выпавших осадков за период времени, мм. При наведении курсора мыши на число - период времени, за который выпало указанное количество осадков.
R24 - Количество осадков - Количество выпавших осадков за 24 часа, мм.
S - Снежный покров - Высота снежного покрова, см. При наведении курсора мыши на число - состояние снежного покрова и степень покрытия местности в баллах.